Location: Newark
(25.6108°S, 54.5803°W)
Time: 10:15:47
(UTC+00:00)

deb Explorer IX - Pass Details

Date: 04 November 2020
Orbit: 538 x 1104 km, 38.8° (Epoch: 23 November)

Event Time Altitude Azimuth Distance (km) Brightness Sun altitude
Rises 18:30:46 0° 270° (W) 3,787 ? 45.0°
Reaches altitude 10° 18:33:55 10° 261° (W) 2,763 ? 44.2°
Maximum altitude 18:39:46 32° 199° (SSW) 1,516 ? 42.9°
Drops below altitude 10° 18:44:57 10° 137° (SE) 2,419 ? 41.8°
Sets 18:47:32 0° 126° (SE) 3,254 ? 41.2°
